Simultaneous Nadir Overpasses (SNOs) Predictions

Prediction of SNOs between AQUA and NOAA-19 Satellite Orbit:

Table of predicted SNOs for the next 14.0 days since TLE Epoch: 12/15/2017
Index Date (AQUA) Time (AQUA) Lat,Lon (AQUA) SZA (AQUA ) Date (NOAA-19) Time (NOAA-19) Lat,Lon (NOAA-19) SZA (NOAA-19 ) Distance(km) Time Diff (sec)
1 12/17/2017 23:10:55 -80.90, -27.65 73.84 12/17/2017 23:10:23 -80.90, -27.67 73.83 0.56 32
2 12/18/2017 00:00:22 80.91, 139.91 106.18 12/18/2017 00:01:25 80.90, 139.89 106.15 0.70 63
3 12/20/2017 04:44:41 80.90, 68.86 106.24 12/20/2017 04:44:07 80.89, 68.88 106.25 1.02 34
4 12/20/2017 05:34:07 -80.89,-123.38 73.78 12/20/2017 05:35:05 -80.90,-123.46 73.79 1.49 58
5 12/22/2017 10:18:26 -80.89, 165.54 73.75 12/22/2017 10:17:47 -80.90, 165.72 73.75 3.19 39
6 12/22/2017 11:07:53 80.90, -26.89 106.27 12/22/2017 11:08:48 80.90, -26.79 106.24 1.84 55
7 12/24/2017 15:52:12 80.90, -97.99 106.27 12/24/2017 15:51:30 80.89, -97.87 106.27 2.38 42
8 12/24/2017 16:41:38 -80.89, 69.76 73.76 12/24/2017 16:42:29 -80.90, 69.88 73.78 2.17 51
9 12/26/2017 21:25:57 -80.90, -1.37 73.79 12/26/2017 21:25:12 -80.89, -1.38 73.78 0.69 45
10 12/26/2017 22:15:24 80.90, 166.20 106.22 12/26/2017 22:16:12 80.89, 166.01 106.22 3.36 48
11 12/29/2017 02:59:42 80.88, 95.38 106.10 12/29/2017 02:58:53 80.89, 95.24 106.14 2.77 49




NCC Satellite Simultaneous Nadir Overpasses (SNOs) Prediction Service
